1340064025977,2.24139
1340064085977,2.22355
1340064145977,2.24222
1340064205977,2.11007
1340064265977,2.08662
1340064325977,2.22825
1340064385977,2.24134
1340064445977,2.29227
1340064505977,2.25531
1340064565977,2.25004
1340064625977,2.23566
1340064685977,2.23493
1340064745977,2.21014
1340064805977,2.23039
1340064865977,2.23258
1340064925977,2.21179
1340064985977,2.22282
1340065045977,2.25494
1340065105977,2.22119
1340065165977,2.19558
1340065225977,2.20192
1340065285977,2.19066
1340065345977,2.24130
1340065405977,2.22630
1340065465977,2.24743
1340065525977,2.21188
1340065585977,2.22887
1340065645977,2.21369
1340065705977,2.20560
1340065765977,2.22987
1340065825977,2.24081
1340065885977,2.20984
1340065945977,2.20992
1340066005977,2.23000
1340066065977,2.22426
1340066125977,2.23368
1340066185977,2.20425
1340066245977,2.20803
1340066305977,2.20530
1340066365977,2.15234
1340066425977,2.19353
1340066485977,2.21479
1340066545977,2.20031
1340066605977,2.17358
1340066665977,2.19809
1340066725977,2.20528
1340066785977,2.22788
1340066845977,2.19654
1340066905977,2.20944
1340066965977,2.19792
1340067025977,2.16934
1340067085977,2.19274
1340067145977,2.18198
1340067205977,2.20320
1340067265977,2.21404
1340067325977,2.18495
1340067385977,2.14503
1340067445977,2.20447
1340067505977,2.32072
1340067565977,2.20194
1340067625987,2.18699
1340067685987,2.16907
1340067745987,2.17524
1340067805987,2.17363
1340067865987,2.16486
1340067925987,2.16517
1340067985987,2.17693
1340068045987,2.17752
1340068105987,2.18128
1340068165987,2.19642
1340068225987,2.02885
1340068285987,2.18208
1340068345987,2.15747
1340068405987,2.16684
1340068465987,2.18176
1340068525987,2.15674
1340068585987,2.17838
1340068645987,2.16036
1340068705987,2.16320
1340068765987,2.14719
1340068825987,2.15724
1340068885987,2.17680
1340068945987,2.18193
1340069005987,2.14217
1340069065987,2.18332
1340069125987,2.16019
1340069185987,2.16423
1340069245987,2.16253
1340069305987,2.15633
1340069365987,2.16122
1340069425987,2.15743
1340069485987,2.15076
1340069545987,2.14497
1340069605987,2.15533
1340069665987,2.15177
1340069725987,2.16689
1340069785987,2.15116
1340069845987,2.16408
1340069905987,2.17376
1340069965987,2.14321
1340070025987,2.14487
1340070085987,2.16781
1340070145987,2.14781
1340070205987,2.15486
1340070265987,2.15383
1340070325987,2.17316
1340070385987,2.16273
1340070445987,2.14338
1340070505987,2.13998
1340070565987,2.14875
1340070625987,2.15399
1340070685987,2.13442
1340070745987,2.15088
1340070805987,2.12805
1340070865987,2.14915
1340070925987,2.15569
1340070985987,2.15246
1340071045987,2.13527
1340071105987,2.14402
1340071165987,2.14747
1340071225997,2.15073
1340071285997,2.14055
1340071345997,2.16464
1340071405997,2.14251
1340071465997,2.18276
1340071525997,2.14995
1340071585997,2.11894
1340071645997,2.14921
1340071705997,2.15250
1340071765997,2.14367
1340071825997,2.13343
1340071885997,2.13623
1340071945997,2.13012
1340072005997,2.15858
1340072065997,2.14496
1340072125997,2.12827
1340072185997,2.22106
1340072245997,2.14601
1340072305997,2.12023
1340072365997,2.14028
1340072425997,2.12710
1340072485997,2.11707
1340072545997,2.15113
1340072605997,2.11939
1340072665997,2.13651
1340072725997,2.15345
1340072785997,2.14938
1340072845997,2.13097
1340072905997,2.12527
1340072965997,2.13719
1340073025997,2.15188
1340073085997,2.15639
1340073145997,2.13418
1340073205997,2.14851
1340073265997,2.14682
1340073325997,2.16114
1340073385997,2.14428
1340073445997,2.14383
1340073505997,2.14141
1340073565997,2.13295
1340073625997,2.13804
1340073685997,2.12708
1340073745997,2.12527
1340073805997,2.14145
1340073865997,2.12269
1340073925997,2.12430
1340073985997,2.12980
1340074045997,2.11744
1340074105997,2.12842
1340074165997,2.13026
1340074225997,2.13157
1340074285997,2.16342
1340074345997,2.12451
1340074405997,2.14417
1340074465997,2.15760
1340074525997,2.12229
1340074585997,2.14202
1340074645997,2.14733
1340074705997,2.13577
1340074765997,2.13286
1340074826007,2.12252
1340074886007,2.13753
1340074946007,2.13608
1340075006007,2.12297
1340075066007,2.12230
1340075126007,2.12223
1340075186007,2.12747
1340075246007,2.11446
1340075306007,2.11987
1340075366007,2.12162
1340075426007,2.13182
1340075486007,2.14069
1340075546007,2.13377
1340075606007,2.12920
1340075666007,2.13648
1340075726007,2.14147
1340075786007,2.12776
1340075846007,2.10666
1340075906007,2.12451
1340075966007,2.11652
1340076026007,2.15204
1340076086007,2.14802
1340076146007,2.11102
1340076206007,2.12072
1340076266007,2.12536
1340076326007,2.13422
1340076386007,2.15979
1340076446007,2.15493
1340076506007,2.12040
1340076566007,2.15508
1340076626007,2.11880
1340076686007,2.13133
1340076746007,2.12947
1340076806007,2.15180
1340076866007,2.10995
1340076926007,2.13865
1340076986007,2.14372
1340077046007,2.13856
1340077106007,2.13183
1340077166007,2.12580
1340077226007,2.12820
1340077286007,2.12229
1340077346007,2.12336
1340077406007,2.12146
1340077466007,2.13569
1340077526007,2.11361
1340077586007,2.14659
1340077646007,2.14807
1340077706007,2.15122
1340077766007,2.15195
1340077826007,2.13740
1340077886007,2.13872
1340077946007,2.14684
1340078006007,2.15809
1340078066007,2.13961
1340078126007,2.16122
1340078186007,2.15768
1340078246007,2.13869
1340078306007,2.13694
1340078366007,2.11471
1340078426016,2.13248
1340078486016,2.12373
1340078546016,2.14362
1340078606016,2.14179
1340078666016,2.14132
1340078726016,2.13052
1340078786016,2.10921
1340078846016,2.14725
1340078906016,2.12308
1340078966016,2.12502
1340079026016,2.12556
1340079086016,2.13434
1340079146016,2.14060
1340079206016,2.14037
1340079266016,2.13379
1340079326016,2.14754
1340079386016,2.12869
1340079446016,2.13583
1340079506016,2.13300
1340079566016,2.12817
1340079626016,2.12072
1340079686016,2.13248
1340079746016,2.11206
1340079806016,2.13194
1340079866016,2.13518
1340079926016,2.12117
1340079986016,2.14111
1340080046016,2.14162
1340080106016,2.10507
1340080166016,2.14478
1340080226016,2.12668
1340080286016,2.13085
1340080346016,2.13477
1340080406016,2.14633
1340080466016,2.12210
1340080526016,2.11727
1340080586016,2.12146
1340080646016,2.13026
1340080706016,2.14545
1340080766016,2.12966
1340080826016,2.12891
1340080886016,2.14322
1340080946016,2.13232
1340081006016,2.13814
1340081066016,2.13417
1340081126016,2.13620
1340081186016,2.12563
1340081246016,2.15740
1340081306016,2.14937
1340081366016,2.15595
1340081426016,2.12794
1340081486016,2.12533
1340081546016,2.14510
1340081606016,2.15343
1340081666016,2.17965
1340081726016,2.16093
1340081786016,2.14516
1340081846016,2.15257
1340081906016,2.15070
1340081966016,2.15705
1340082026025,2.17684
1340082086025,2.14190
1340082146025,2.15317
1340082206025,2.17837
1340082266025,2.16329
1340082326025,2.17883
1340082386025,2.18704
1340082446025,2.17942
1340082506025,2.17360
1340082566025,2.19723
1340082626025,2.18274
1340082686025,2.19533
1340082746025,2.19380
1340082806025,2.20117
1340082866025,2.19249
1340082926025,2.19634
1340082986025,2.21822
1340083046025,2.22212
1340083106025,2.19243
1340083166025,2.20474
1340083226025,2.18487
1340083286025,2.19998
1340083346025,2.19324
1340083406025,2.18527
1340083466025,2.20250
1340083526025,2.21563
1340083586025,2.22433
1340083646025,2.20243
1340083706025,2.22502
1340083766025,2.21114
1340083826025,2.21509
1340083886025,2.19697
1340083946025,2.21273
1340084006025,2.22306
1340084066025,2.21491
1340084126025,2.20604
1340084186025,2.21915
1340084246025,2.19104
1340084306025,2.20356
1340084366025,2.20736
1340084426025,2.21455
1340084486025,2.19759
1340084546025,2.23318
1340084606025,2.23593
1340084666025,2.19833
1340084726025,2.20158
1340084786025,2.19541
1340084846025,2.19126
1340084906025,2.20851
1340084966025,2.21016
1340085026025,2.20121
1340085086025,2.19338
1340085146025,2.19230
1340085206025,2.19170
1340085266025,2.21352
1340085326025,2.20167
1340085386025,2.19533
1340085446025,2.18587
1340085506025,2.20213
1340085566025,2.18829
1340085626035,2.18096
1340085686035,2.20537
1340085746035,2.18552
1340085806035,2.20134
1340085866035,2.17260
1340085926035,2.17219
1340085986035,2.17247
1340086046035,2.17691
1340086106035,2.18276
1340086166035,2.18415
1340086226035,2.17371
1340086286035,2.18680
1340086346035,2.19270
1340086406035,2.17797
1340086466035,2.18808
1340086526035,2.18708
1340086586035,2.17334
1340086646035,2.20982
1340086706035,2.17991
1340086766035,2.17905
1340086826035,2.18874
1340086886035,2.18193
1340086946035,2.16836
1340087006035,2.19082
1340087066035,2.16752
1340087126035,2.18462
1340087186035,2.16912
1340087246035,2.19692
1340087306035,2.18206
1340087366035,2.17639
1340087426035,2.19590
1340087486035,2.19800
1340087546035,2.18959
1340087606035,2.16531
1340087666035,2.16575
1340087726035,2.18065
1340087786035,2.20320
1340087846035,2.16501
1340087906035,2.17853
1340087966035,2.18303
1340088026035,2.18475
1340088086035,2.17312
1340088146035,2.16074
1340088206035,2.15854
1340088266035,2.15983
1340088326035,2.17157
1340088386035,2.20029
1340088446035,2.17683
1340088506035,2.19098
1340088566035,2.18982
1340088626035,2.16448
1340088686035,2.16855
1340088746035,2.17076
1340088806035,2.18012
1340088866035,2.17131
1340088926035,2.16122
1340088986035,2.16668
1340089046035,2.17749
1340089106035,2.15114
1340089166035,2.17493
1340089226044,2.16230
1340089286044,2.17772
1340089346044,2.15684
1340089406044,2.16899
1340089466044,2.17211
1340089526044,2.16502
1340089586044,2.15000
1340089646044,2.16369
1340089706044,2.14804
1340089766044,2.16539
1340089826044,2.15532
1340089886044,2.16602
1340089946044,2.15643
1340090006044,2.15593
1340090066044,2.16118
1340090126044,2.18845
1340090186044,2.18767
1340090246044,2.16617
1340090306044,2.13922
1340090366044,2.15826
1340090426044,2.14153
1340090486044,2.16165
1340090546044,2.15149
1340090606044,2.15770
1340090666044,2.14477
1340090726044,2.16144
1340090786044,2.14968
1340090846044,2.16084
1340090906044,2.16917
1340090966044,2.16944
1340091026044,2.16221
1340091086044,2.15020
1340091146044,2.15658
1340091206044,2.16786
1340091266044,2.15798
1340091326044,2.14434
1340091386044,2.14614
1340091446044,2.15554
1340091506044,2.15654
1340091566044,2.16101
1340091626044,2.14977
1340091686044,2.14971
1340091746044,2.15911
1340091806044,2.16978
1340091866044,2.15976
1340091926044,2.16083
1340091986044,2.16447
1340092046044,2.16923
1340092106044,2.15554
1340092166044,2.15569
1340092226044,2.14254
1340092286044,2.13495
1340092346044,2.15427
1340092406044,2.16870
1340092466044,2.17571
1340092526044,2.16513
1340092586044,2.17082
1340092646044,2.16738
1340092706044,2.15681
1340092766044,2.16015
1340092826053,2.17222
1340092886053,2.16266
1340092946053,2.15541
1340093006053,2.15715
1340093066053,2.16171
1340093126053,2.16395
1340093186053,2.15270
1340093246053,2.18396
1340093306053,2.15915
1340093366053,2.13857
1340093426053,2.13957
1340093486053,2.16678
1340093546053,2.17603
1340093606053,2.17079
1340093666053,2.16173
1340093726053,2.15680
1340093786053,2.16800
1340093846053,2.16540
1340093906053,2.14760
1340093966053,2.16818
1340094026053,2.16813
1340094086053,2.16058
1340094146053,2.13706
1340094206053,2.16012
1340094266053,2.15086
1340094326053,2.13121
1340094386053,2.16487
1340094446053,2.15559
1340094506053,2.16796
1340094566053,2.15042
1340094626053,2.14967
1340094686053,2.15370
1340094746053,2.15745
1340094806053,2.13510
1340094866053,2.24430
1340094926053,2.13665
1340094986053,2.16885
1340095046053,2.15054
1340095106053,2.12715
1340095166053,2.14846
1340095226053,2.13277
1340095286053,2.14310
1340095346053,2.15625
1340095406053,2.15834
1340095466053,2.16373
1340095526053,2.16216
1340095586053,2.15645
1340095646053,2.16117
1340095706053,2.14408
1340095766053,2.15905
1340095826053,2.15856
1340095886053,2.14735
1340095946053,2.16537
1340096006053,2.17081
1340096066053,2.14761
1340096126053,2.17353
1340096186053,2.14564
1340096246053,2.13866
1340096306053,2.15304
1340096366053,2.15096
1340096426062,2.13343
1340096486062,2.14311
1340096546062,2.15519
1340096606062,2.16220
1340096666062,2.14662
1340096726062,2.15802
1340096786062,2.16851
1340096846062,2.15471
1340096906062,2.17093
1340096966062,2.14906
1340097026062,2.15208
1340097086062,2.13854
1340097146062,2.14655
1340097206062,2.13799
1340097266062,2.13862
1340097326062,2.15252
1340097386062,2.15479
1340097446062,2.16519
1340097506062,2.15280
1340097566062,2.14006
1340097626062,2.17473
1340097686062,2.15928
1340097746062,2.12359
1340097806062,2.14633
1340097866062,2.16074
1340097926062,2.15666
1340097986062,2.14417
1340098046062,2.15384
1340098106062,2.14801
1340098166062,2.15958
1340098226062,2.15974
1340098286062,2.15367
1340098346062,2.17637
1340098406062,2.15484
1340098466062,2.15629
1340098526062,2.17600
1340098586062,2.17664
1340098646062,2.14254
1340098706062,2.16802
1340098766062,2.14706
1340098826062,2.15144
1340098886062,2.16439
1340098946062,2.16509
1340099006062,2.17693
1340099066062,2.15805
1340099126062,2.15591
1340099186062,2.15261
1340099246062,2.17501
1340099306062,2.18859
1340099366062,2.15641
1340099426062,2.16993
1340099486062,2.15646
1340099546062,2.16761
1340099606062,2.15393
1340099666062,2.16354
1340099726062,2.16823
1340099786062,2.15502
1340099846062,2.16978
1340099906062,2.19279
1340099966062,2.19815
1340100026071,2.16525
1340100086071,2.14642
1340100146071,2.13603
1340100206071,2.15096
1340100266071,2.17241
1340100326071,2.16506
1340100386071,2.16070
1340100446071,2.17228
1340100506071,2.15990
1340100566071,2.16462
1340100626071,2.18057
1340100686071,2.16214
1340100746071,2.16810
1340100806071,2.16293
1340100866071,2.15885
1340100926071,2.16510
1340100986071,2.18782
1340101046071,2.15284
1340101106071,2.18201
1340101166071,2.16012
1340101226071,2.16344
1340101286071,2.16984
1340101346071,2.18780
1340101406071,2.17425
1340101466071,2.18890
1340101526071,2.17223
1340101586071,2.15870
1340101646071,2.18445
1340101706071,2.18208
1340101766071,2.21629
1340101826071,2.17919
1340101886071,2.17954
1340101946071,2.19967
1340102006071,2.17369
1340102066071,2.20896
1340102126071,2.18080
1340102186071,2.18949
1340102246071,2.16960
1340102306071,2.20470
1340102366071,2.19303
1340102426071,2.18626
1340102486071,2.17085
1340102546071,2.16448
1340102606071,2.19810
1340102666071,2.17802
1340102726071,2.18835
1340102786071,2.18203
1340102846071,2.18020
1340102906071,2.19922
1340102966071,2.22058
1340103026071,2.17743
1340103086071,2.18047
1340103146071,2.18822
1340103206071,2.17614
1340103266071,2.19774
1340103326071,2.18832
1340103386071,2.16276
1340103446071,2.18049
1340103506071,2.20426
1340103566071,2.18895
1340103626080,2.13673
1340103686080,2.19283
1340103746080,2.18299
1340103806080,2.19191
1340103866080,2.21465
1340103926080,2.19712
1340103986080,2.17417
1340104046080,2.18801
1340104106080,2.16926
1340104166080,2.20548
1340104226080,2.17985
1340104286080,2.19375
1340104346080,2.19245
1340104406080,2.18878
1340104466080,2.18345
1340104526080,2.18309
1340104586080,2.19065
1340104646080,2.19855
1340104706080,2.19682
1340104766080,2.17309
1340104826080,2.21297
1340104886080,2.20183
1340104946080,2.21238
1340105006080,2.20164
1340105066080,2.19946
1340105126080,2.20420
1340105186080,2.18732
1340105246080,2.18371
1340105306080,2.19324
1340105366080,2.18813
1340105426080,2.20678
1340105486080,2.18760
1340105546080,2.20163
1340105606080,2.23144
1340105666080,2.24212
1340105726080,2.19895
1340105786080,2.18656
1340105846080,2.20930
1340105906080,2.20492
1340105966080,2.19788
1340106026080,2.21377
1340106086080,2.21362
1340106146080,2.19942
1340106206080,2.21403
1340106266080,2.23565
1340106326080,2.21062
1340106386080,2.22825
1340106446080,2.20964
1340106506080,2.21389
1340106566080,2.20344
1340106626080,2.18571
1340106686080,2.23764
1340106746080,2.24041
1340106806080,2.23754
1340106866080,2.21434
1340106926080,2.20764
1340106986080,2.20784
1340107046080,2.21500
1340107106080,2.20780
1340107166080,2.21027
1340107226089,2.21261
1340107286089,2.22167
1340107346089,2.19880
1340107406089,2.26214
1340107466089,2.25022
1340107526089,2.22749
1340107586089,2.24248
1340107646089,2.22217
1340107706089,2.25580
1340107766089,2.23440
1340107826089,2.20055
1340107886089,2.26594
1340107946089,2.25246
1340108006089,2.22030
1340108066089,2.23329
1340108126089,2.22245
1340108186089,2.23216
1340108246089,2.23163
1340108306089,2.23984
1340108366089,2.26067
1340108426089,2.23982
1340108486089,2.25690
1340108546089,2.22921
1340108606089,2.26639
1340108666089,2.23478
1340108726089,2.23139
1340108786089,2.80265
1340108846089,2.25095
1340108906089,2.25897
1340108966089,2.24639
1340109026089,2.23050
1340109086089,2.26123
1340109146089,2.24224
1340109206089,2.25188
1340109266089,2.23939
1340109326089,2.24136
1340109386089,2.23095
1340109446089,2.23829
1340109506089,2.19963
1340109566089,2.23412
1340109626089,2.25304
1340109686089,2.22164
1340109746089,2.25664
1340109806089,2.27454
1340109866089,2.27985
1340109926089,2.24140
1340109986089,2.25157
1340110046089,2.24662
1340110106089,2.24452
1340110166089,2.25355
1340110226089,2.27160
1340110286089,2.27968
1340110346089,2.25954
1340110406089,2.23398
1340110466089,2.28551
1340110526089,2.26193
1340110586089,2.21468
1340110646089,2.25190
1340110706089,2.24430
1340110766089,2.27719
1340110826098,2.25713
1340110886098,2.24379
1340110946098,2.27469
1340111006098,2.27751
1340111066098,2.29136
1340111126098,2.28561
1340111186098,2.30186
1340111246098,2.29812
1340111306098,2.28573
1340111366098,2.29619
1340111426098,2.27658
1340111486098,2.28733
1340111546098,2.25443
1340111606098,2.21854
1340111666098,2.25035
1340111726098,2.30114
1340111786098,2.27265
1340111846098,2.26219
1340111906098,2.26638
1340111966098,2.26680
1340112026098,2.25407
1340112086098,2.25903
1340112146098,2.22156
1340112206098,2.23973
1340112266098,2.24695
1340112326098,2.32430
1340112386098,2.29282
1340112446098,2.30366
1340112506098,2.23314
1340112566098,2.27932
1340112626098,2.28098
1340112686098,2.27152
1340112746098,2.33324
1340112806098,2.25434
1340112866098,2.27677
1340112926098,2.25510
1340112986098,2.26963
1340113046098,2.24880
1340113106098,2.29652
1340113166098,2.31849
1340113226098,2.27991
1340113286098,2.27254
1340113346098,2.25932
1340113406098,2.24558
1340113466098,2.28541
1340113526098,2.26237
1340113586098,2.26261
1340113646098,2.23302
1340113706098,2.24606
1340113766098,2.26396
1340113826098,2.27578
1340113886098,2.28545
1340113946098,2.27391
1340114006098,2.29825
1340114066098,2.25177
1340114126098,2.25698
1340114186098,2.24390
1340114246098,2.26822
1340114306098,2.28945
1340114366098,2.23823
1340114426107,2.25240
1340114486107,2.29096
1340114546107,2.29005
1340114606107,2.26714
1340114666107,2.26285
1340114726107,2.29419
1340114786107,2.32284
1340114846107,2.25432
1340114906107,2.27881
1340114966107,2.28639
1340115026107,2.22151
1340115086107,2.21911
1340115146107,2.29947
1340115206107,2.25058
1340115266107,2.28748
1340115326107,2.29037
1340115386107,2.30933
1340115446107,2.27512
1340115506107,2.31066
1340115566107,2.29627
1340115626107,2.29150
1340115686107,2.29878
1340115746107,2.28699
1340115806107,2.24601
1340115866107,2.27679
1340115926107,2.29188
1340115986107,2.30716
1340116046107,2.23672
1340116106107,2.27436
1340116166107,2.26109
1340116226107,2.25725
1340116286107,2.27036
1340116346107,2.26854
1340116406107,2.26335
1340116466107,2.29404
1340116526107,2.26712
1340116586107,2.28732
1340116646107,2.26454
1340116706107,2.26113
1340116766107,2.27463
1340116826107,2.30100
1340116886107,2.28208
1340116946107,2.29166
1340117006107,2.28087
1340117066107,2.28087
1340117126107,2.31331
1340117186107,2.29599
1340117246107,2.28583
1340117306107,2.27380
1340117366107,2.26684
1340117426107,2.29176
1340117486107,2.27531
1340117546107,2.29388
1340117606107,2.27857
1340117666107,2.25194
1340117726107,2.26109
1340117786107,2.29349
1340117846107,2.26359
1340117906107,2.29638
1340117966107,2.30449
1340118026117,2.24247
1340118086117,2.28259
1340118146117,2.30198
1340118206117,2.27557
1340118266117,2.26879
1340118326117,2.29160
1340118386117,2.24376
1340118446117,2.25726
1340118506117,2.27077
1340118566117,2.26700
1340118626117,2.24686
1340118686117,2.22880
1340119226117,2.21018
1340119286117,1.93403
1340119346117,2.23551
1340119406117,2.26670
1340119466117,2.24748
1340119526117,2.26732
1340119586117,2.25313
1340119646117,2.26115
1340119706117,2.27986
1340119766117,2.23314
1340119826117,2.26110
1340119886117,2.22861
1340119946117,2.26788
1340120006117,2.24178
1340120066117,2.26571
1340120126117,2.26585
1340120186117,2.24734
1340120246117,2.25739
1340120306117,2.22872
1340120366117,2.24161
1340120426117,2.23327
1340120486117,2.24483
1340120546117,2.23612
1340120606117,2.22629
1340120666117,2.23734
1340120726117,2.22056
1340120786117,2.22163
1340120846117,2.18892
1340120906117,2.21362
1340120966117,2.21740
1340121026117,2.20921
1340121086117,2.24308
1340121146117,2.23889
1340121206117,2.22982
1340121266117,2.21654
1340121326117,2.21957
1340121386117,2.22812
1340121446117,2.19685
1340121506117,2.19228
1340121566117,2.19521
1340121626126,2.19368
1340121686126,2.17855
1340121746126,2.17342
1340121806126,2.22602
1340121866126,2.19050
1340121926126,2.18099
1340121986126,2.20428
1340122046126,2.15075
1340122106126,2.18072
1340122166126,2.16300
1340122226126,2.16408
1340122286126,2.20119
1340122346126,2.19028
1340122406126,2.19724
1340122466126,2.17970
1340122526126,2.16975
1340122586126,2.18802
1340122646126,2.16636
1340122706126,2.18030
1340122766126,2.19027
1340122826126,2.16781
1340122886126,2.16424
1340122946126,2.17651
1340123006126,2.17157
1340123066126,2.14123
1340123126126,2.15760
1340123186126,2.16594
1340123246126,2.17397
1340123306126,2.16758
1340123366126,2.16986
1340123426126,2.16613
1340123486126,2.13488
1340123546126,2.16041
1340123606126,2.12364
1340123666126,2.13423
1340123726126,2.12940
1340123786126,2.16070
1340123846126,2.14747
1340123906126,2.14231
1340123966126,2.14716
1340124026126,2.13576
1340124086126,2.14639
1340124146126,2.14816
1340124206126,2.10511
1340124266126,2.13576
1340124326126,2.11375
1340124386126,2.13925
1340124446126,2.14979
1340124506126,2.12335
1340124566126,2.14355
1340124626126,2.12114
1340124686126,2.13803
1340124746126,2.13017
1340124806126,2.13296
1340124866126,2.13618
1340124926126,2.11693
1340124986126,2.16481
1340125046126,2.14486
1340125106126,2.10204
1340125166126,2.12553
1340125226136,2.13496
1340125286136,2.09426
1340125346136,2.15373
1340125406136,2.13026
1340125466136,2.11650
1340125526136,2.11125
1340125586136,2.11854
1340125646136,2.09868
1340125706136,2.11525
1340125766136,2.11016
1340125826136,2.10209
1340125886136,2.10847
1340125946136,2.11106
1340126006136,2.13512
1340126066136,2.08304
1340126126136,2.12049
1340126186136,2.12988
1340126246136,2.11138
1340126306136,2.08841
1340126366136,2.10067
1340126426136,2.09078
1340126486136,2.10707
1340126546136,2.10435
1340126606136,2.11342
1340126666136,2.10792
1340126726136,2.11427
1340126786136,2.10138
1340126846136,2.12829
1340126906136,2.11967
1340126966136,2.09354
1340127026136,2.10083
1340127086136,2.09917
1340127146136,2.09327
1340127206136,2.10183
1340127266136,2.10533
1340127326136,2.10163
1340127386136,2.11808
1340127446136,2.09873
1340127506136,2.09247
1340127566136,2.11143
1340127626136,2.11083
1340127686136,2.09087
1340127746136,2.11007
1340127806136,2.10372
1340127866136,2.09440
1340127926136,2.07314
1340127986136,2.09453
1340128046136,2.12031
1340128106136,2.10073
1340128166136,2.10711
1340128226136,2.08063
1340128286136,2.12293
1340128346136,2.09798
1340128406136,2.11664
1340128466136,2.09767
1340128526136,2.10327
1340128586136,2.09883
1340128646136,2.09270
1340128706136,2.10332
1340128766136,2.09469
1340128826146,2.11066
1340128886146,2.10153
1340128946146,2.11033
1340129006146,2.09948
1340129066146,2.09993
1340129126146,2.07526
1340129186146,2.12540
1340129246146,2.08278
1340129306146,2.11130
1340129366146,2.11673
1340129426146,2.10035
1340129486146,2.11605
1340129546146,2.09892
1340129606146,2.10300
1340129666146,2.07613
1340129726146,2.11454
1340129786146,2.08743
1340129846146,2.09422